Total_Precipitation_Accumulation
0.00 0.00 0.00 0.00 0.00 0.01 0.01 0.04 0.06 0.11 0.13 0.15 0.17 0.18 0.18 0.19 0.23 0.28 0.27 0.28 0.28 0.27
0.00 0.00 0.00 0.00 0.00 0.00 0.02 0.05 0.07 0.09 0.11 0.13 0.14 0.16 0.18 0.19 0.21 0.27 0.31 0.35 0.40 0.34
0.00 0.00 0.00 0.00 0.01 0.01 0.01 0.02 0.03 0.05 0.06 0.06 0.08 0.10 0.13 0.15 0.16 0.20 0.21 0.22 0.25 0.23
0.00 0.00 0.00 0.01 0.02 0.02 0.03 0.03 0.04 0.03 0.02 0.02 0.03 0.04 0.05 0.08 0.11 0.14 0.17 0.19 0.23 0.24
0.00 0.00 0.01 0.02 0.03 0.03 0.03 0.03 0.03 0.04 0.03 0.04 0.04 0.05 0.07 0.07 0.07 0.09 0.14 0.18 0.23 0.25
0.01 0.01 0.02 0.03 0.05 0.04 0.03 0.03 0.03 0.04 0.05 0.06 0.09 0.15 0.16 0.14 0.11 0.11 0.12 0.13 0.15 0.16
0.03 0.03 0.02 0.02 0.03 0.04 0.04 0.04 0.04 0.04 0.04 0.07 0.12 0.11 0.11 0.13 0.14 0.16 0.16 0.16 0.19 0.24
0.06 0.04 0.02 0.01 0.02 0.03 0.03 0.04 0.05 0.06 0.05 0.05 0.06 0.12 0.16 0.18 0.19 0.20 0.23 0.28 0.34 0.41
0.04 0.04 0.03 0.03 0.05 0.04 0.03 0.03 0.07 0.12 0.12 0.13 0.12 0.22 0.13 0.08 0.09 0.16 0.23 0.31 0.36 0.42
0.07 0.05 0.14 0.10 0.11 0.10 0.11 0.08 0.10 0.18 0.32 0.39 0.45 0.60 0.53 0.51 0.52 0.49 0.44 0.39 0.33 0.31
0.19 0.08 0.15 0.26 0.18 0.22 0.24 0.37 0.50 0.42 0.55 0.78 0.90 0.85 0.69 0.55 0.48 0.49 0.43 0.32 0.23 0.14
0.36 0.18 0.12 0.15 0.35 0.56 0.48 0.58 0.68 0.65 0.73 0.62 0.54 0.43 0.30 0.23 0.21 0.19 0.14 0.07 0.02 0.00
0.25 0.25 0.50 0.39 0.34 0.67 0.70 0.49 0.49 0.56 0.53 0.39 0.30 0.21 0.13 0.08 0.05 0.02 0.00 0.00 0.00 0.00
0.20 0.27 0.37 0.52 0.51 0.48 0.48 0.46 0.40 0.28 0.17 0.10 0.04 0.01 0.00 0.00 0.00 0.00 0.00 0.00 0.00 0.00